User: anonymous   Login
Location: Unspecified
(0.0000°N, 0.0000°E)
Time: 20:14:06
(UTC+00:00)
Language:

STARLINK-3632 - Orbit

View from above orbital plane
View from above orbital plane
View from above satellite
View from above satellite

Ground track
Ground track

The orbit is defined by the following mean orbital elements,

1 51784U          26145.63504995 +.00000000 +00000-0 -44595-4 0 00009
2 51784  53.2110   3.6973 0001780  90.7716 269.3480 15.08839229    02
Epoch (UTC): 25 May 2026 15:14:28
Eccentricity: 0.0001780
inclination: 53.2110°
perigee height: 539 km
apogee height: 541 km
right ascension of ascending node: 3.6973°
argument of perigee: 90.7716°
revolutions per day: 15.08839229
mean anomaly at epoch: 269.3480°

The dashed part of the orbit path shows where the satellite is in the earth's shadow,  

DLR